Grand Ruby — 3EIU3 — position and weather

sailwx.info

Track history (hours):
 
Tides and Currents Weather Stations Pressure Air Temp Water Temp Dewpoint Dewpoint Depression Visibility Wind Speed Wind Dir Waves Ship Positions

Grand Ruby

Last reported at 2014-Sep-18 17:21 UTC. Time now 2014-Sep-19 03:50 UTC.
Position N 30°28' E 123°05'.

Length 200 m; draft 9.6 m.

Type: Cargo ship. MMSI: 372399000.

Date/timePositionNaut miles runAvg speedWind from/ knotsBaromVisibWave heightAir tempDewpointWater temp
2014-Sep-18 17:21N 30°28' E 123°05'1518.8
2014-Sep-18 16:33N 30°43' E 123°00'1918.6
2014-Sep-18 15:31N 30°60' E 122°51'1817.2
2014-Sep-18 14:30N 31°05' E 122°31'1212.4
2014-Sep-18 13:32N 31°07' E 122°18'2914.7
2014-Sep-18 11:32N 31°18' E 121°46'5 1.4
2014-Sep-18 08:09N 31°19' E 121°41'0 0.0
2014-Sep-17 23:33N 31°19' E 121°41'3 3.0
2014-Sep-17 22:33N 31°19' E 121°44'1010.0
2014-Sep-17 21:32N 31°16' E 121°55'20 8.7
2014-Sep-17 19:15N 31°07' E 122°17'8 7.4
2014-Sep-17 18:06N 31°06' E 122°26'8 2.1
2014-Sep-17 14:27N 31°09' E 122°35'0 0.0
2014-Sep-17 13:15N 31°09' E 122°35'2 0.3
2014-Sep-17 06:14N 31°08' E 122°37'3115.8
2014-Sep-17 04:16N 31°32' E 123°01'1217.7
2014-Sep-17 03:34N 31°43' E 123°08'1817.4
2014-Sep-17 02:33N 31°58' E 123°19'3417.0
2014-Sep-17 00:33N 32°26' E 123°42'1816.6
2014-Sep-16 23:29N 32°41' E 123°53'1616.8
2014-Sep-16 22:33N 32°54' E 124°03'1716.8
2014-Sep-16 21:33N 33°08' E 124°14'1716.8
2014-Sep-16 20:32N 33°23' E 124°24'2016.8
2014-Sep-16 19:20N 33°40' E 124°37'1517.0
2014-Sep-16 18:28N 33°52' E 124°47'1617.1
2014-Sep-16 17:31N 34°06' E 124°58'1616.1
2014-Sep-16 16:31N 34°13' E 125°15'1717.0
2014-Sep-16 15:33N 34°18' E 125°34'3214.6
2014-Sep-16 13:22N 34°31' E 126°09'  
2014-Sep-11 10:34N 36°32' E 125°51'1716.4
2014-Sep-11 09:33N 36°47' E 125°58'  
2014-Sep-08 17:28N 36°52' E 125°54'  
Track history (hours):
 
Tides and Currents Weather Stations Pressure Air Temp Water Temp Dewpoint Dewpoint Depression Visibility Wind Speed Wind Dir Waves Ship Positions

Grand Ruby

Last reported at 2014-Sep-18 17:21 UTC. Time now 2014-Sep-19 03:50 UTC.
Position N 30°28' E 123°05'.

Length 200 m; draft 9.6 m.

Type: Cargo ship. MMSI: 372399000.

Date/timePositionNaut miles runAvg speedWind from/ knotsBaromVisibWave heightAir tempDewpointWater temp
2014-Sep-18 17:21N 30°28' E 123°05'1518.8
2014-Sep-18 16:33N 30°43' E 123°00'1918.6
2014-Sep-18 15:31N 30°60' E 122°51'1817.2
2014-Sep-18 14:30N 31°05' E 122°31'1212.4
2014-Sep-18 13:32N 31°07' E 122°18'2914.7
2014-Sep-18 11:32N 31°18' E 121°46'5 1.4
2014-Sep-18 08:09N 31°19' E 121°41'0 0.0
2014-Sep-17 23:33N 31°19' E 121°41'3 3.0
2014-Sep-17 22:33N 31°19' E 121°44'1010.0
2014-Sep-17 21:32N 31°16' E 121°55'20 8.7
2014-Sep-17 19:15N 31°07' E 122°17'8 7.4
2014-Sep-17 18:06N 31°06' E 122°26'8 2.1
2014-Sep-17 14:27N 31°09' E 122°35'0 0.0
2014-Sep-17 13:15N 31°09' E 122°35'2 0.3
2014-Sep-17 06:14N 31°08' E 122°37'3115.8
2014-Sep-17 04:16N 31°32' E 123°01'1217.7
2014-Sep-17 03:34N 31°43' E 123°08'1817.4
2014-Sep-17 02:33N 31°58' E 123°19'3417.0
2014-Sep-17 00:33N 32°26' E 123°42'1816.6
2014-Sep-16 23:29N 32°41' E 123°53'1616.8
2014-Sep-16 22:33N 32°54' E 124°03'1716.8
2014-Sep-16 21:33N 33°08' E 124°14'1716.8
2014-Sep-16 20:32N 33°23' E 124°24'2016.8
2014-Sep-16 19:20N 33°40' E 124°37'1517.0
2014-Sep-16 18:28N 33°52' E 124°47'1617.1
2014-Sep-16 17:31N 34°06' E 124°58'1616.1
2014-Sep-16 16:31N 34°13' E 125°15'1717.0
2014-Sep-16 15:33N 34°18' E 125°34'3214.6
2014-Sep-16 13:22N 34°31' E 126°09'  
2014-Sep-11 10:34N 36°32' E 125°51'1716.4
2014-Sep-11 09:33N 36°47' E 125°58'  
2014-Sep-08 17:28N 36°52' E 125°54'  

Dump ship's entire track history